EW7226 Weather Reports


time (UTC)temp
C
wind
direction
speed
KPH
gust
KPH
rain 1hr
cm
rain 24hr
cm
rain mn
cm
humidity
%
barometer
mb
20260506044513 17 360 0.0 0.0 0.00 0.58 0.30 49 1010.4
20260506043017 18 360 0.0 0.0 0.00 0.58 0.30 49 1010.3
20260506041509 18 360 0.0 0.0 0.00 0.58 0.30 48 1010.1
20260506040009 18 360 0.0 0.0 0.00 0.58 0.30 46 1009.9
20260506034509 18 360 0.0 0.0 0.00 0.61 0.30 44 1009.8
20260506033015 18 360 0.0 0.0 0.00 0.61 0.30 41 1009.6
20260506031508 19 360 0.0 0.0 0.00 0.61 0.30 38 1009.2
20260506030009 19 360 0.0 0.0 0.00 0.61 0.30 36 1009.0
20260506024524 20 360 0.0 0.0 0.00 0.81 0.30 34 1008.8
20260506023006 20 360 0.0 0.0 0.00 0.81 0.30 34 1008.5
20260506021507 20 360 0.0 0.0 0.00 0.81 0.30 34 1008.3
20260506020008 20 360 0.0 0.0 0.00 0.81 0.30 34 1008.0
20260506014507 21 360 0.0 0.0 0.00 0.86 0.30 34 1007.9
20260506013004 21 360 0.0 0.0 0.00 0.86 0.30 34 1007.7
20260506011505 21 360 0.0 0.0 0.00 0.86 0.30 30 1007.6
20260506010007 22 9 0.0 0.0 0.00 0.86 0.30 29 1007.4
20260506004506 22 360 0.0 0.0 0.00 0.91 0.30 29 1007.2
20260506003003 22 9 0.0 0.0 0.00 0.91 0.30 28 1007.1
20260506001503 22 360 0.0 0.0 0.00 0.91 0.30 28 1007.2
20260506000004 22 347 0.0 0.0 0.00 0.91 0.30 29 1007.0
20260505234502 22 355 0.0 0.0 0.00 0.91 0.30 29 1006.9
20260505233001 23 355 0.0 0.0 0.00 0.91 0.30 28 1006.9
20260505231503 22 355 0.0 0.0 0.00 0.91 0.30 28 1006.9
20260505230100 22 355 0.0 0.0 0.00 0.91 0.30 27 1006.8
20260505224559 23 360 0.0 0.0 0.00 0.91 0.30 26 1007.0
20260505223106 23 355 0.0 0.0 0.00 0.91 0.30 27 1007.2
20260505221600 23 355 0.0 0.0 0.00 0.91 0.30 27 1007.3
20260505220055 23 355 0.0 0.0 0.00 0.91 0.30 27 1007.2
20260505214613 23 360 0.0 0.0 0.00 0.91 0.30 29 1007.4
20260505213057 23 355 0.0 0.0 0.00 0.91 0.30 31 1007.6
20260505211549 22 5 0.0 0.0 0.00 0.91 0.30 33 1007.7
20260505210047 22 10 0.0 0.0 0.00 0.91 0.30 35 1007.7
20260505204547 22 5 0.0 0.0 0.00 0.91 0.30 37 1007.6
20260505203045 22 360 0.0 0.0 0.00 0.91 0.30 39 1007.8
20260505201545 23 360 0.0 0.0 0.00 0.91 0.30 37 1007.8
20260505200055 23 360 0.0 0.0 0.00 0.91 0.30 36 1007.9
20260505194538 22 9 0.0 0.0 0.00 0.91 0.30 40 1008.1
20260505193037 21 5 0.0 0.0 0.00 0.91 0.30 45 1008.1
20260505191537 21 5 0.0 0.0 0.00 0.91 0.30 48 1008.1
20260505190032 21 9 0.0 0.0 0.00 0.91 0.30 49 1008.3
20260505184529 21 9 0.0 0.0 0.00 0.91 0.30 51 1008.6
20260505183030 21 360 0.0 0.0 0.00 0.91 0.30 53 1008.8
20260505181520 20 12 0.0 0.0 0.00 0.91 0.30 56 1008.9
20260505180019 19 9 0.0 0.0 0.00 0.91 0.30 59 1009.1
20260505174515 18 10 0.0 0.0 0.00 0.91 0.30 59 1009.3
20260505173014 19 9 0.0 0.0 0.00 0.91 0.30 58 1009.3
20260505171510 19 10 0.0 0.0 0.00 0.91 0.30 60 1009.4
20260505170008 18 10 0.0 0.0 0.00 0.91 0.30 65 1009.3
20260505164503 17 15 0.0 0.0 0.00 0.91 0.30 69 1009.3
20260505163100 17 10 0.0 0.0 0.00 0.91 0.30 74 1009.4
20260505161605 16 5 0.0 0.0 0.00 0.91 0.30 76 1009.5
20260505153101 16 5 0.0 0.0 0.00 0.91 0.30 78 1009.2
20260505151604 16 5 0.0 0.0 0.00 0.91 0.30 78 1009.2
20260505140107 15 5 0.0 0.0 0.00 0.91 0.30 84 1008.7
20260505124540 14 5 0.0 0.0 0.00 0.91 0.30 88 1007.9
20260505123037 14 5 0.0 0.0 0.00 0.91 0.30 89 1007.9
20260505121538 14 5 0.0 0.0 0.00 0.91 0.30 89 1007.7
20260505120043 14 5 0.0 0.0 0.00 0.91 0.30 89 1007.5
20260505114529 14 5 0.0 0.0 0.03 0.91 0.30 89 1007.2
20260505113028 14 5 0.0 0.0 0.03 0.91 0.30 89 1007.3
20260505111527 14 5 0.0 0.0 0.05 0.91 0.30 89 1007.9
20260505101538 14 5 0.0 0.0 0.03 0.86 0.25 90 1008.1
20260505100022 14 5 0.0 0.0 0.05 0.86 0.25 90 1008.5
20260505094532 14 5 0.0 0.0 0.08 0.86 0.25 91 1008.6
20260505093019 14 5 0.0 0.0 0.08 0.86 0.25 91 1008.7
20260505091517 14 5 0.0 0.0 0.08 0.84 0.23 91 1009.0
20260505090019 14 11 0.0 0.0 0.05 0.81 0.20 90 1009.3
20260505084511 14 13 0.0 0.0 0.08 0.79 0.18 90 1009.8
20260505083015 15 13 0.0 0.0 0.10 0.79 0.18 90 1010.1
20260505081507 15 13 0.0 0.0 0.10 0.76 0.15 90 1010.5
20260505080004 15 13 0.0 0.0 0.15 0.76 0.15 89 1010.7
20260505074601 15 13 0.0 0.0 0.13 0.71 0.10 89 1011.2
20260505073133 15 13 0.0 0.0 0.13 0.69 0.08 89 1011.2
20260505071604 15 13 0.0 0.0 0.13 0.66 0.05 89 1011.0
20260505064555 15 13 0.0 0.0 0.18 0.58 0.58 87 1010.7
20260505063054 15 12 0.0 0.0 0.20 0.56 0.56 86 1010.6
20260505061547 15 13 0.0 0.0 0.18 0.53 0.53 86 1010.7